EAGLET 1
1 43790U 18099AJ  24251.70557224  .00013538  00000-0  97746-3 0  9992
2 43790  97.5206 307.1719 0014057  53.1496 307.1017 15.04130463314674
ESEO
1 43792U 18099AL  24251.72611551  .00006242  00000-0  50163-3 0  9996
2 43792  97.5072 303.5200 0008806  41.7823 318.4072 15.00331200314577
CSIM
1 43793U 18099AM  24251.22656162  .00057904  00000-0  26035-2 0  9990
2 43793  97.5224 315.4672 0010403  32.2951 327.8919 15.20856795315225
JO-97
1 43803U 18099AX  24251.42413088  .00025659  00000-0  15845-2 0  9991
2 43803  97.5119 308.3510 0009428  29.9548 330.2219 15.09829596315094
Suomi 100
1 43804U 18099AY  24251.12481238  .00021744  00000-0  13801-2 0  9992
2 43804  97.5186 307.8271 0015161  25.8936 334.3048 15.08802079315028
ISAT
1 43879U 18111D   24251.48293775  .00033429  00000-0  18544-2 0  9997
2 43879  97.6085 156.9054 0015196  80.5837 279.7112 15.13586656311854
UWE-4
1 43880U 18111E   24251.72715537  .00029589  00000-0  17008-2 0  9997
2 43880  97.6010 156.9470 0018690  87.2410 273.0959 15.12287360309895
Sparrow
1 43881U 18111F   24251.55659370  .00032964  00000-0  18003-2 0  9998
2 43881  97.6183 159.0469 0012441 112.2282 248.0270 15.14179138311934
Prox-1
1 44339U 19036A   24251.56661621  .00025510  00000-0  41708-2 0  9994
2 44339  23.9980  54.5143 0007295 195.5002 164.5270 14.69407026277362
SONATE
1 44400U 19038Q   24251.52565115  .00051358  00000-0  13018-2 0  9994
2 44400  97.7155 249.5964 0016072 161.2956 198.8883 15.39410476286723
Taurus 1
1 44530U 19059C   24251.83119614  .00024630  00000-0  54214-2 0  9990
2 44530  98.5827  14.3165 0011449 163.3661 196.7914 14.57373032263791
Duchifat 3
1 44854U 19089C   24251.73192802  .00041638  00000-0  18562-2 0  9994
2 44854  36.9548 266.5167 0004664  95.2219 264.9062 15.20497144260759
TO-108
1 44881U 19093C   24251.84506294  .00004401  00000-0  53165-3 0  9991
2 44881  97.8225 327.0316 0015319  55.9503 304.3163 14.84166233255301
FloripaSat 1
1 44885U 19093G   24251.83260629  .00017982  00000-0  17786-2 0  9999
2 44885  97.8363 333.8422 0012410  46.0901 314.1340 14.91882235255685
RS-44
1 44909U 19096E   24251.51429674  .00000029  00000-0  77009-4 0  9991
2 44909  82.5203  50.0538 0216911 218.5228 140.0222 12.79733524219508
UPMSat 2
1 46276U 20061E   24251.45532001  .00044276  00000-0  11730-2 0  9995
2 46276  97.2888 316.9229 0001871 156.7450 203.3880 15.38216497222800
AmicalSat
1 46287U 20061R   24251.44650973  .00102719  00000-0  20563-2 0  9996
2 46287  97.3388 319.1496 0001810 237.9685 122.1388 15.46376088222234
SALSAT
1 46495U 20068K   24251.89323179  .00020126  00000-0  10773-2 0  9991
2 46495  97.8248 213.3918 0014701  39.8965 320.3343 15.14980660216825
UVSQ-SAT
1 47438U 21006AB  24251.42143549  .00224387  00000-0  22020-2 0  9995
2 47438  97.3123 313.7933 0005858 244.0391 116.0266 15.65330640201515
SOMP 2b
1 47445U 21006AJ  24251.59039694  .00163274  00000-0  21056-2 0  9991
2 47445  97.3077 311.6705 0005146 258.1903 101.8776 15.58434873201423
IDEASSat
1 47458U 21006AX  24251.24319106  .00120314  00000-0  18902-2 0  9990
2 47458  97.3209 311.5205 0004897 264.7785  95.2909 15.53207379201272
CubeSX-Sirius-HSE
1 47951U 21022V   24251.89022293  .00058511  00000-0  19400-2 0  9998
2 47951  97.4467 150.2625 0012183 190.1632 169.9365 15.30986220191201
CubeSX-HSE
1 47952U 21022W   24251.90171329  .00057374  00000-0  18909-2 0  9995
2 47952  97.4467 150.3839 0012237 188.6871 171.4161 15.31185080191216
KSU-Cubesat
1 47954U 21022Y   24251.70158578  .00073189  00000-0  21031-2 0  9998
2 47954  97.4476 151.9514 0011439 179.2582 180.8681 15.35484871191016
GRBAlpha
1 47959U 21022AD  24251.86132154  .00059065  00000-0  19424-2 0  9992
2 47959  97.4471 150.5056 0012079 188.8178 171.2853 15.31248939190035
Orbicraft-Zorkiy
1 47960U 21022AE  24251.86096236  .00073804  00000-0  22162-2 0  9994
2 47960  97.4512 152.1240 0011338 182.1142 178.0054 15.34094509190809
TUBIN
1 48900U 21059X   24251.81699785  .00044186  00000-0  13255-2 0  9996
2 48900  97.6566  39.1272 0006530 154.5058 205.6507 15.34313636177575
LEDSAT
1 49069U 21073D   24251.77246802  .00043302  00000-0  15166-2 0  9994
2 49069  97.4298 322.5413 0016767 354.1728   5.9314 15.29221527169055
CUTE
1 49263U 21088D   24251.46113428  .00050744  00000-0  20535-2 0  9993
2 49263  97.4885 317.1147 0014201 151.8065 208.3944 15.24431837162158
TeikyoSat 4
1 49396U 21102B   24251.57378080  .00006656  00000-0  47119-3 0  9997
2 49396  97.4524 293.7063 0013001   4.2409 355.8926 15.05085341155144
Z-Sat
1 49399U 21102E   24251.83143107  .00012104  00000-0  75159-3 0  9999
2 49399  97.4231 295.7295 0018908 338.0610  21.9808 15.09681532155456
KOSEN 1
1 49402U 21102H   24251.69388798  .00017071  00000-0  95968-3 0  9993
2 49402  97.4152 297.3566 0016965 319.5884  40.4086 15.13229982155614
HO-113
1 50466U 21131B   24251.82581571  .00003127  00000-0  10082-2 0  9996
2 50466  98.5253 336.5119 0003398 228.3388 131.7510 14.39914476141899
IRIS-A
1 51044U 22002BN  24251.45439756  .00055837  00000-0  15446-2 0  9997
2 51044  97.3759 317.9001 0006366 107.0989 253.0953 15.36800419147031
OreSat0
1 52017U 22026K   24251.58514243  .00470822  00000-0  22890-2 0  9999
2 52017  97.4812 270.8166 0006289 215.6626 144.4222 15.81178611138584
Planetum 1
1 52738U 22057G   24251.58077137  .00150582  00000-0  23224-2 0  9999
2 52738  97.5719  21.3391 0005849 228.9217 131.1531 15.53604436127306
Foresail-1
1 52766U 22057AL  24251.30817919  .00054114  00000-0  14786-2 0  9997
2 52766  97.5908  19.0554 0008989 200.2743 159.8145 15.37173384127041
SNUGLITE 2
1 52899U 22065F   24251.37401283  .00005716  00000-0  11650-2 0  9994
2 52899  98.1317  31.0020 0006753 254.0657 105.9800 14.61343601116268
IO-117
1 53106U 22080B   24250.99190354 -.00000003  00000-0  00000-0 0  9994
2 53106  70.1446 164.1041 0007903  89.0961 271.0604  6.42557298 50528
FO-118
1 54684U 22167C   24251.82381139  .00090895  00000-0  24329-2 0  9997
2 54684  97.6142  39.0390 0009630 219.0186 141.0365 15.37639868 96963
SSS-2B
1 56184U 23054G   24251.85672409  .00118885  00000-0  20136-2 0  9998
2 56184  97.3532 150.9914 0004614 176.7829 183.3454 15.51107124 78908
CIRBE
1 56188U 23054L   24251.69078017  .00363345  00000-0  21433-2 0  9993
2 56188  97.3419 154.7507 0009703 151.2310 208.9493 15.77109436 79165
INSPIRE-Sat 7
1 56211U 23054AK  24251.69063742  .00782454  25144-3  25051-2 0  9994
2 56211  97.3381 156.6219 0011021 148.2213 211.9728 15.90945027 79271
SO-120
1 56992U 23084BU  24251.77716385  .00095337  00000-0  26587-2 0  9993
2 56992  97.5368  12.4650 0008687  94.7583 265.4653 15.36352113 68829
MRC-100
1 56993U 23084BV  24251.86143495  .00121062  00000-0  29730-2 0  9998
2 56993  97.5361  13.2982 0006941  90.6534 269.5507 15.40181046 68892
UmKA 1 (RS40S)
1 57172U 23091G   24251.86475455  .00015929  00000-0  10042-2 0  9990
2 57172  97.6035 303.1173 0016205 193.6228 166.4565 15.09107023 65953
CubeBel-2 (EU11S)
1 57175U 23091K   24251.83247132  .00023920  00000-0  14571-2 0  9990
2 57175  97.6030 303.1480 0014457 205.9489 154.1017 15.10294087 65950
VERONIKA
1 58261U 23174F   24251.83723769  .00053807  00000-0  20747-2 0  9993
2 58261  97.4529 326.0769 0010199 311.0154  49.0201 15.26078502 46291
KAFASAT
1 58317U 23174BP  24251.83933154  .00075160  00000-0  24964-2 0  9997
2 58317  97.4468 327.0755 0009403 281.9358  78.0828 15.30877901 46379
ENSO
1 58470U 23185J   24251.87556924  .00045157  00000-0  16708-2 0  9999
2 58470  97.4176 317.9042 0010623 351.0488   9.0560 15.27488915 42744
EIRSAT-1
1 58472U 23185L   24251.87256866  .00054528  00000-0  19480-2 0  9995
2 58472  97.4169 318.0334 0010049 351.1458   8.9602 15.28599025 42756
SO-121
1 58567U 23174CY  24251.54441765  .00203216  00000-0  41539-2 0  9996
2 58567  97.4431 328.2270 0010369 277.5252  82.4818 15.45326615 46429
SONATE-2
1 59112U 24043Q   24251.60160005  .00029177  00000-0  12941-2 0  9998
2 59112  97.4875  14.7301 0014067   9.4687 350.6811 15.21456173 28322
MESAT1
1 60209U 24125G   24251.84372514  .00030970  00000-0  13625-2 0  9997
2 60209  97.3142 102.7894 0026483  37.8224 322.4867 15.21487546  9975
GRBBeta
1 60237U 24128C   24251.56973454  .00011312  00000-0  97215-3 0  9997
2 60237  61.9950 315.1171 0016151 331.6457  28.3751 14.97737694  8935
Curium One
1 60242U 24128H   24251.53508325  .00017711  00000-0  15308-2 0  9992
2 60242  61.9858 315.4232 0017537 316.4048  43.5653 14.97217470  8930
ROBUSTA-3A
1 60243U 24128J   24251.54292082  .00016189  00000-0  14095-2 0  9994
2 60243  61.9925 315.5118 0015921 310.6745  49.2959 14.97001156  8939
CatSat
1 60246U 24125J   24251.87167597  .00021714  00000-0  95687-3 0  9999
2 60246  97.2965 104.0174 0051178 348.6066  11.4006 15.20621937  8095
SR-0 DemoSAT
1 60455U 24147B   24251.10341040  .00232810  00000-0  55400-2 0  9997
2 60455  37.3781 162.7702 0017450 195.9925 164.0288 15.39719370  3022
Binar 4
1 60952U 98067WS  24251.46707807  .00171627  00000-0  27157-2 0  9993
2 60952  51.6368 267.6370 0012791 336.6480  23.3927 15.52244342  1418
CosmoGirlSat
1 60953U 98067WT  24251.53227521  .00124010  00000-0  20101-2 0  9998
2 60953  51.6373 267.3225 0013768 333.8650  26.1643 15.51753435  1428
